SES-7 (PROTOSTAR 2) (34941 NORAD) Tracking and Keplerian Element Data

This shows tracking and keplerian element data for the satellite.

Feedback or suggestion? Click here.




ElementValue
Catalog34941
NameSES-7 (PROTOSTAR 2)
Epoch Orbit6083
Epoch Day354.00205372
Epoch Year2025
RAAN37.7973
Inclination0.0198
Eccentricity0.0001906
Argument of Perigee232.0538
Mean Anonmoly287.9808
Mean Motion1.0027157
Decay Rate-3.21E-06
L11 34941U 09027A 25354.00205372 -.00000321 00000+0 00000+0 0 9992
L22 34941 0.0198 37.7973 0001906 232.0538 287.9808 1.00271570 60838



Live tracking and technical data element details for SES-7 (PROTOSTAR 2) (NORAD 34941). SES-7 (PROTOSTAR 2) can be tracked NOW for your location showing map with azimuth and elevation plus other details from your city location.







IsCatalogInMostPopularTable: catalog: 34941, numindb: 394
Update: records affected: 1



GetName: 34941 SES-7 (PROTOSTAR 2)

Hit Count: updated at: Sat, 14 Mar 2026 01:51:05 GMT